Location: Slatestone
(36.1859°N, 84.1963°W)
Time: 01:25:27
(UTC+00:00)

Hubble Space Telescope - Visible Passes

Search period start: 09 April 2020 00:00
Search period end: 19 April 2020 00:00
Orbit: 536 x 540 km, 28.5° (Epoch: 08 April)

Date Brightness Start Highest point End Pass type
(mag) Time Alt. Az. Time Alt. Az. Time Alt. Az.
09 Apr 2.0 01:28:07 10° SW 01:31:33 26° S 01:31:55 25° SSE visible
10 Apr 2.0 01:17:20 10° SW 01:20:50 27° S 01:21:59 23° SSE visible
11 Apr 2.0 01:06:35 10° WSW 01:10:06 27° S 01:12:00 19° SE visible
12 Apr 2.0 00:55:51 10° WSW 00:59:23 27° S 01:01:59 15° SE visible
12 Apr 3.5 02:37:06 10° WSW 02:37:19 11° WSW 02:37:19 11° WSW visible
13 Apr 2.1 00:45:09 10° WSW 00:48:40 27° S 00:51:57 11° SE visible
13 Apr 3.3 02:26:37 10° WSW 02:27:17 12° SW 02:27:17 12° SW visible
14 Apr 2.2 00:34:29 10° WSW 00:37:56 26° S 00:41:22 10° SE visible
14 Apr 3.2 02:16:17 10° SW 02:17:14 13° SW 02:17:14 13° SW visible
15 Apr 3.2 02:06:10 10° SW 02:07:11 12° SSW 02:07:11 12° SSW visible
